[[{"header":{"parameterUnit":"m.s-1","parameterCategory":1,"la1":30.2991,"la2":30.254,"lo1":-89.0895,"lo2":-89.0444,"dy":0.0017,"dx":0.0017,"nx":28,"ny":28,"refTime":"2025-11-23T03:00:00:Z","depth":0,"parameterNumber":2,"parameterNumberName":"U-component_of_WINDS"},"data":[0,0,0,0,0,0,0,0,0,0,0,0,0,0,0,0,0,0,0,0,0,0,0,0,0,0,0,0,0,0,0,0,0,0,0,0,0,0,0,0,0,0,0,0,0,0,0,0,0,0,0,0,0,0,0,0,0,0,-1.5757,-1.5757,0,-1.5747,-1.5747,-1.5747,-1.5661,-1.5658,-1.5656,-1.5654,-1.5646,-1.5648,-1.5649,0,0,0,0,0,0,0,0,0,0,0,0,0,-1.5703,-1.5705,-1.5757,-1.5757,-1.5757,-1.5747,-1.5747,-1.5747,-1.5661,-1.5658,-1.5656,-1.5653,-1.5645,-1.5647,-1.565,0,0,0,0,0,0,0,0,0,0,0,0,0,-1.5714,-1.5705,-1.5757,-1.5713,-1.5709,-1.5747,-1.5747,-1.5747,-1.5662,-1.5658,-1.5655,-1.5652,-1.5645,-1.5647,-1.565,-1.5731,0,0,-1.5658,-1.5659,0,0,0,0,0,0,0,0,-1.5713,-1.5716,-1.572,-1.5716,-1.5712,-1.5702,-1.5725,-1.5742,-1.5662,-1.568,-1.5654,-1.565,-1.5667,-1.5668,-1.5673,-1.573,-1.573,-1.5658,-1.566,-1.5661,-1.5662,0,0,0,0,0,0,0,-1.5712,-1.5716,-1.5753,-1.572,-1.5715,-1.5694,-1.5692,-1.5728,-1.5692,-1.5678,-1.5672,-1.5671,-1.5664,-1.5671,-1.5672,-1.573,-1.5658,-1.5661,-1.5662,-1.5663,-1.5853,-1.5857,0,0,0,0,0,0,-1.5718,-1.5716,-1.5754,-1.5753,-1.5704,-1.5698,-1.5695,-1.5708,-1.5691,-1.5685,-1.5674,-1.5667,-1.5668,-1.5669,-1.5672,-1.5766,-1.5661,-1.5663,-1.5665,-1.585,-1.5854,-1.5858,0,0,0,0,0,0,-1.5717,-1.5722,-1.5754,-1.5733,-1.5735,-1.5702,-1.5717,-1.571,-1.5716,-1.5688,-1.5682,-1.5687,-1.5665,-1.5668,-1.5717,-1.5764,-1.5665,-1.5667,-1.5846,-1.5851,-1.5856,-1.5954,0,0,0,0,0,0,-1.5716,-1.5722,-1.5752,-1.5734,-1.5737,-1.5799,-1.572,-1.5712,-1.5721,-1.5712,-1.5699,-1.5693,-1.5663,-1.5713,-1.5719,-1.5766,-1.5669,-1.5841,-1.5848,-1.5854,-1.5947,-1.5962,-1.5976,0,0,0,0,0,-1.5714,-1.5781,-1.5754,-1.576,-1.5774,-1.5802,-1.5804,-1.5767,-1.5725,-1.5755,-1.5737,-1.5694,-1.5758,-1.5719,-1.5725,-1.5773,-1.5838,-1.5846,-1.5854,-1.594,-1.5959,-1.5975,0,0,0,0,0,0,-1.5807,-1.5778,-1.5748,-1.5811,-1.581,-1.5788,-1.5825,-1.5788,-1.5799,-1.5791,-1.5744,-1.5742,-1.5798,-1.579,-1.5748,-1.5851,-1.579,-1.58,-1.5854,-1.5872,-1.5886,-1.5887,-1.5671,0,0,0,0,0,-1.5834,-1.586,-1.5833,-1.5891,-1.5892,-1.5859,-1.587,-1.5841,-1.5838,-1.5838,-1.5823,-1.5823,-1.5842,-1.5856,-1.5873,-1.5945,-1.5941,-1.5981,-1.5995,-1.6007,-1.6016,-1.6054,-1.6072,-1.5883,-1.5883,-1.5883,0,0,-1.5892,-1.5879,-1.5898,-1.5909,-1.5905,-1.5933,-1.5859,-1.5891,-1.5911,-1.5843,-1.5888,-1.5877,-1.5873,-1.5934,-1.596,-1.5929,-1.6067,-1.6017,-1.6027,-1.6029,-1.6064,-1.6082,-1.6098,-1.5889,-1.5888,-1.5887,0,0,-1.6011,-1.6004,-1.6051,-1.6048,-1.6042,-1.602,-1.6031,-1.6015,-1.6005,-1.6049,-1.5998,-1.6022,-1.6057,-1.6056,-1.6061,-1.6179,-1.614,-1.6186,-1.6261,-1.6299,-1.6313,-1.6326,-1.6369,-1.6385,-1.6194,-1.6195,-1.6195,0,-1.6084,-1.6123,-1.6081,-1.6116,-1.6123,-1.6061,-1.6109,-1.6108,-1.6109,-1.6115,-1.608,-1.6122,-1.6115,-1.6175,-1.6204,-1.6209,-1.6222,-1.6187,-1.6314,-1.6327,-1.6339,-1.6379,-1.6395,-1.62,-1.62,-1.6199,-1.6199,0,-1.6213,-1.6241,-1.628,-1.6281,-1.6292,-1.6334,-1.6298,-1.6314,-1.6285,-1.6266,-1.6312,-1.6301,-1.6315,-1.6326,-1.6298,-1.6383,-1.6364,-1.6322,-1.6261,-1.6363,-1.64,-1.6415,-1.6208,-1.6206,-1.6205,-1.6203,0,0,-1.6392,-1.6368,-1.6383,-1.6383,-1.6371,-1.6392,-1.6431,-1.6444,-1.6459,-1.6461,-1.6493,-1.6523,-1.6485,-1.649,-1.6461,-1.6494,-1.6589,-1.6448,-1.6447,-1.6475,-1.6682,-1.6714,-1.6732,-1.6562,-1.6565,-1.6567,-1.6682,0,-1.6507,-1.6572,-1.6535,-1.6605,-1.663,-1.6571,-1.6605,-1.6602,-1.6586,-1.6605,-1.6586,-1.6609,-1.6556,-1.6559,-1.6589,-1.6571,-1.663,-1.6562,-1.6592,-1.6594,-1.6596,-1.6751,-1.6785,-1.6895,-1.6696,-1.6699,-1.6701,0,-1.6651,-1.6658,-1.6731,-1.6714,-1.6723,-1.6755,-1.6763,-1.6782,-1.6777,-1.6763,-1.6768,-1.6731,-1.6768,-1.6707,-1.6758,-1.6713,-1.6723,-1.6716,-1.672,-1.6722,-1.6654,-1.6759,-1.6929,-1.6946,-1.6723,-1.6721,-1.672,0,-1.6775,-1.6803,-1.685,-1.6851,-1.6833,-1.6856,-1.685,-1.6842,-1.6852,-1.6859,-1.6865,-1.6877,-1.6884,-1.6894,-1.6861,-1.6819,-1.6917,-1.6853,-1.6907,-1.6908,-1.6931,-1.6931,-1.7106,-1.6937,-1.6936,-1.6936,-1.6936,0,-1.6908,-1.6955,-1.6905,-1.6935,-1.6986,-1.6942,-1.6994,-1.6981,-1.6975,-1.7001,-1.695,-1.6976,-1.693,-1.6952,-1.6926,-1.6973,-1.6976,-1.6966,-1.6959,-1.6971,-1.6973,-1.6978,-1.697,-1.694,-1.6939,-1.6938,-1.6938,0,-1.7056,-1.7024,-1.7072,-1.705,-1.7046,-1.7084,-1.7066,-1.7092,-1.7072,-1.7105,-1.7111,-1.7079,-1.7101,-1.7069,-1.7088,-1.7071,-1.7135,-1.7116,-1.7137,-1.7132,-1.7188,-1.7184,-1.7374,-1.7397,-1.7212,-1.7214,-1.7215,0,-1.7144,-1.7178,-1.716,-1.7173,-1.717,-1.7192,-1.7201,-1.716,-1.7172,-1.7169,-1.7196,-1.7214,-1.7226,-1.7264,-1.7243,-1.7258,-1.7239,-1.7305,-1.7241,-1.7252,-1.7241,-1.724,-1.7244,-1.7318,-1.7321,-1.7322,-1.7324,0,-1.7303,-1.7285,-1.73,-1.7311,-1.7323,-1.7329,-1.7331,-1.7345,-1.7302,-1.7318,-1.734,-1.7349,-1.7368,-1.7387,-1.7396,-1.7389,-1.735,-1.7344,-1.7357,-1.7371,-1.7382,-1.7378,-1.7174,-1.734,-1.7338,-1.7337,-1.7336,-1.7336,-1.7424,-1.7452,-1.7443,-1.7462,-1.7459,-1.7462,-1.7486,-1.7468,-1.7485,-1.7497,-1.7471,-1.75,-1.7494,-1.7501,-1.7499,-1.7521,-1.7493,-1.7512,-1.7517,-1.7523,-1.7532,-1.7377,-1.7522,-1.7522,-1.7521,-1.7521,-1.7521,0,-1.7581,-1.7572,-1.759,-1.7594,-1.7609,-1.7569,-1.757,-1.7585,-1.761,-1.7608,-1.762,-1.7646,-1.7663,-1.7643,-1.7658,-1.7679,-1.7661,-1.7684,-1.7683,-1.7682,-1.7556,-1.7544,-1.7698,-1.7698,-1.7698,-1.7698,-1.7698,-1.7698,-1.7665,-1.7711,-1.7692,-1.7736,-1.7726,-1.7753,-1.7757,-1.776,-1.7758,-1.7788,-1.7802,-1.7788,-1.7779,-1.7792,-1.7806,-1.78,-1.7808,-1.7838,-1.7825,-1.7708,-1.7691,-1.7674,-1.7662,-1.7839,-1.784,-1.7949,-1.795,-1.7951]},{"header":{"parameterUnit":"m.s-1","parameterCategory":1,"la1":30.2991,"la2":30.254,"lo1":-89.0895,"lo2":-89.0444,"dy":0.0017,"dx":0.0017,"nx":28,"ny":28,"refTime":"2025-11-23T03:00:00:Z","depth":0,"parameterNumber":3,"parameterNumberName":"V-component_of_WINDS"},"data":[0,0,0,0,0,0,0,0,0,0,0,0,0,0,0,0,0,0,0,0,0,0,0,0,0,0,0,0,0,0,0,0,0,0,0,0,0,0,0,0,0,0,0,0,0,0,0,0,0,0,0,0,0,0,0,0,0,0,-2.7346,-2.7346,0,-2.7349,-2.7349,-2.7349,-2.7306,-2.7305,-2.7304,-2.7303,-2.7305,-2.7306,-2.7307,0,0,0,0,0,0,0,0,0,0,0,0,0,-2.7304,-2.7305,-2.7346,-2.7346,-2.7346,-2.7349,-2.7349,-2.7349,-2.7306,-2.7305,-2.7304,-2.7302,-2.7305,-2.7306,-2.7307,0,0,0,0,0,0,0,0,0,0,0,0,0,-2.7316,-2.7306,-2.7346,-2.7326,-2.7324,-2.7349,-2.7349,-2.7349,-2.7307,-2.7305,-2.7303,-2.7302,-2.7304,-2.7306,-2.7308,-2.7353,0,0,-2.7313,-2.7314,0,0,0,0,0,0,0,0,-2.7316,-2.7318,-2.7329,-2.7327,-2.7325,-2.7325,-2.7335,-2.735,-2.7307,-2.7313,-2.7303,-2.7301,-2.7313,-2.7314,-2.7318,-2.7353,-2.7353,-2.7313,-2.7314,-2.7315,-2.7315,0,0,0,0,0,0,0,-2.7315,-2.7318,-2.7347,-2.7329,-2.7327,-2.7316,-2.7316,-2.7337,-2.7323,-2.7313,-2.7309,-2.731,-2.7312,-2.7317,-2.7318,-2.7353,-2.7313,-2.7314,-2.7316,-2.7316,-2.7423,-2.7424,0,0,0,0,0,0,-2.7317,-2.7317,-2.7347,-2.7347,-2.7316,-2.7318,-2.7318,-2.7327,-2.7323,-2.732,-2.7312,-2.7308,-2.7315,-2.7316,-2.7318,-2.7369,-2.7315,-2.7316,-2.7317,-2.7421,-2.7423,-2.7425,0,0,0,0,0,0,-2.7316,-2.732,-2.7347,-2.7331,-2.7334,-2.7321,-2.7331,-2.7328,-2.7333,-2.7322,-2.7319,-2.7319,-2.7313,-2.7316,-2.7344,-2.7369,-2.7317,-2.7319,-2.7419,-2.7422,-2.7424,-2.7472,0,0,0,0,0,0,-2.7315,-2.732,-2.7337,-2.7332,-2.7335,-2.7373,-2.7333,-2.7329,-2.7336,-2.7331,-2.7328,-2.7326,-2.7312,-2.7342,-2.7346,-2.737,-2.732,-2.7416,-2.742,-2.7423,-2.7469,-2.7477,-2.7483,0,0,0,0,0,-2.7314,-2.7351,-2.7338,-2.7342,-2.7356,-2.7375,-2.7377,-2.736,-2.7338,-2.7355,-2.7348,-2.7326,-2.7366,-2.7345,-2.7349,-2.7374,-2.7415,-2.7419,-2.7423,-2.7465,-2.7475,-2.7483,0,0,0,0,0,0,-2.736,-2.735,-2.7336,-2.7373,-2.7375,-2.7368,-2.7389,-2.7371,-2.7379,-2.7375,-2.7354,-2.7353,-2.7385,-2.7382,-2.736,-2.7417,-2.7386,-2.7391,-2.7417,-2.7426,-2.7433,-2.7433,-2.7321,0,0,0,0,0,-2.7374,-2.7391,-2.7381,-2.7414,-2.7416,-2.7402,-2.741,-2.7397,-2.7398,-2.7399,-2.7394,-2.7396,-2.7409,-2.7417,-2.7429,-2.7468,-2.7466,-2.7488,-2.7495,-2.7501,-2.7505,-2.7525,-2.7534,-2.7438,-2.7438,-2.7438,0,0,-2.7405,-2.7401,-2.7413,-2.7424,-2.7424,-2.744,-2.7404,-2.7423,-2.7435,-2.7402,-2.7428,-2.7424,-2.7425,-2.7459,-2.7474,-2.7458,-2.7532,-2.7506,-2.7511,-2.7512,-2.753,-2.7539,-2.7547,-2.7441,-2.7441,-2.744,0,0,-2.7467,-2.7467,-2.7494,-2.7495,-2.7495,-2.7485,-2.7492,-2.7487,-2.7484,-2.7509,-2.7485,-2.7498,-2.7521,-2.7522,-2.7526,-2.7588,-2.7568,-2.7593,-2.7631,-2.765,-2.7657,-2.7664,-2.7685,-2.7693,-2.7597,-2.7597,-2.7597,0,-2.7505,-2.7529,-2.751,-2.7531,-2.7536,-2.7506,-2.7533,-2.7535,-2.7539,-2.7543,-2.7526,-2.7552,-2.7551,-2.7584,-2.7599,-2.7604,-2.761,-2.7592,-2.7658,-2.7664,-2.767,-2.769,-2.7698,-2.76,-2.76,-2.76,-2.7599,0,-2.7574,-2.7591,-2.7612,-2.7617,-2.7624,-2.7648,-2.7633,-2.7642,-2.7629,-2.7621,-2.7647,-2.7644,-2.7653,-2.7661,-2.7648,-2.7692,-2.7682,-2.7662,-2.763,-2.7682,-2.77,-2.7708,-2.7604,-2.7603,-2.7602,-2.7602,0,0,-2.7666,-2.7659,-2.7667,-2.7668,-2.7666,-2.7678,-2.7701,-2.7709,-2.7718,-2.7722,-2.7739,-2.7758,-2.7739,-2.7743,-2.773,-2.7747,-2.7795,-2.7725,-2.7724,-2.7737,-2.7842,-2.7857,-2.7866,-2.7782,-2.7784,-2.7785,-2.7842,0,-2.7726,-2.7763,-2.7746,-2.7785,-2.7799,-2.7771,-2.779,-2.7791,-2.7784,-2.7795,-2.7788,-2.7801,-2.7776,-2.7778,-2.7794,-2.7786,-2.7816,-2.7782,-2.7798,-2.7798,-2.7797,-2.7876,-2.7891,-2.7945,-2.7849,-2.785,-2.7851,0,-2.7801,-2.7807,-2.7847,-2.7841,-2.7846,-2.7864,-2.787,-2.7881,-2.7881,-2.7875,-2.7879,-2.7862,-2.7882,-2.7852,-2.788,-2.7857,-2.7862,-2.786,-2.7861,-2.7861,-2.7827,-2.7877,-2.7962,-2.7969,-2.7862,-2.7861,-2.7861,0,-2.7862,-2.7881,-2.7906,-2.7908,-2.7902,-2.7915,-2.7913,-2.7911,-2.7917,-2.7923,-2.7926,-2.7934,-2.7939,-2.7945,-2.793,-2.791,-2.796,-2.7928,-2.7954,-2.7955,-2.7965,-2.7965,-2.8051,-2.7971,-2.7971,-2.7971,-2.797,0,-2.793,-2.7956,-2.7934,-2.7949,-2.7976,-2.7957,-2.7984,-2.7979,-2.7978,-2.7992,-2.7969,-2.7982,-2.7962,-2.7974,-2.7962,-2.7986,-2.7989,-2.7983,-2.798,-2.7985,-2.7985,-2.7987,-2.7983,-2.7973,-2.7972,-2.7972,-2.7972,0,-2.8004,-2.799,-2.8016,-2.8008,-2.8006,-2.8026,-2.8019,-2.8033,-2.8025,-2.8043,-2.8046,-2.8032,-2.8044,-2.803,-2.8042,-2.8034,-2.8066,-2.8057,-2.8066,-2.8063,-2.8089,-2.8086,-2.8179,-2.819,-2.8104,-2.8105,-2.8106,0,-2.8047,-2.8066,-2.8059,-2.8067,-2.8066,-2.8079,-2.8084,-2.8066,-2.8073,-2.8073,-2.8087,-2.8097,-2.8104,-2.8125,-2.8116,-2.8125,-2.8115,-2.8147,-2.8117,-2.8121,-2.8114,-2.8113,-2.8114,-2.8154,-2.8155,-2.8155,-2.8156,0,-2.8126,-2.8118,-2.8127,-2.8134,-2.8141,-2.8145,-2.8148,-2.8155,-2.8136,-2.8145,-2.8157,-2.8162,-2.8173,-2.8183,-2.8189,-2.8187,-2.8168,-2.8166,-2.8172,-2.8177,-2.8181,-2.8178,-2.8082,-2.8164,-2.8163,-2.8162,-2.8162,-2.8162,-2.8185,-2.82,-2.8197,-2.8207,-2.8207,-2.821,-2.8222,-2.8214,-2.8224,-2.8231,-2.822,-2.8234,-2.8233,-2.8238,-2.8238,-2.8249,-2.8236,-2.8245,-2.8247,-2.825,-2.8253,-2.818,-2.8251,-2.825,-2.825,-2.825,-2.825,0,-2.8262,-2.8258,-2.8268,-2.8272,-2.828,-2.8261,-2.8263,-2.8271,-2.8284,-2.8284,-2.8291,-2.8304,-2.8313,-2.8305,-2.8313,-2.8323,-2.8315,-2.8326,-2.8324,-2.8324,-2.8265,-2.8259,-2.8332,-2.8332,-2.8332,-2.8332,-2.8332,-2.8332,-2.8302,-2.8325,-2.8317,-2.8339,-2.8336,-2.8349,-2.8352,-2.8354,-2.8353,-2.8369,-2.8377,-2.8371,-2.8367,-2.8374,-2.8382,-2.8379,-2.8383,-2.8397,-2.8391,-2.8336,-2.8328,-2.832,-2.8314,-2.8398,-2.8398,-2.8448,-2.8449,-2.8449]}]]